Tracking 19170 objects as of 23-May-2018
HD Live streaming from Space Station
objects crossing your sky now

FENGYUN 1C DEB

Track FENGYUN 1C DEB now!
10-day predictions


NORAD ID: 30498
Int'l Code: 1999-025AHL
Perigee: 837.5 km
Apogee: 1,005.6 km
Inclination: 99.3 °
Period: 103.3 minutes
Semi major axis: 7292 km
RCS: 0.027 m2 (small)
Launch date: May 10, 1999
Source: People's Republic of China (PRC)
Launch site: Taiyaun Space Center, China (TSC)

Note: This is SATELLITE DEBRIS
aabbcc
Your satellite tracking list
Your tracking list is empty




NASA's NSSDC Master Catalog

Two Line Element Set (TLE):
1 30498U 99025AHL 18142.49437118 +.00000578 +00000-0 +44473-3 0  9997
2 30498 099.2674 124.9507 0115305 126.4105 355.2178 13.94064185573619
Source of the keplerian elements: AFSPC